This is the latest recevied weather packets stored in our database for station/object KA1AL. If no packets are shown the sender has not sent any weather packets the latest 10 day(s).
| Time | Temp. | Humidity | Pressure | Rain* | Wind** | Luminosity | Snow |
|---|---|---|---|---|---|---|---|
| 1777894789 | 6.11° C | 69% | 1005.8 hPa | 0 mm | - | 178 W/m² | - |
| 1777894485 | 5.56° C | 69% | 1005.9 hPa | 0 mm | - | 140 W/m² | - |
| 1777894183 | 5° C | 71% | 1005.9 hPa | 0 mm | - | 97 W/m² | - |
| 1777893880 | 5° C | 70% | 1005.9 hPa | 0 mm | - | 58 W/m² | - |
| 1777893576 | 5.56° C | 70% | 1005.9 hPa | 0 mm | - | 83 W/m² | - |
| 1777893273 | 5° C | 72% | 1006.1 hPa | 0 mm | - | 100 W/m² | - |
| 1777892970 | 5° C | 72% | 1005.8 hPa | 0 mm | - | 84 W/m² | - |
| 1777892666 | 4.44° C | 71% | 1005.8 hPa | 0 mm | - | 49 W/m² | - |
| 1777892362 | 3.89° C | 72% | 1005.6 hPa | 0 mm | - | 46 W/m² | - |
| 1777892058 | 3.89° C | 73% | 1005.7 hPa | 0 mm | - | 44 W/m² | - |
| 1777891756 | 3.89° C | 74% | 1005.8 hPa | 0 mm | - | 45 W/m² | - |
| 1777891452 | 3.33° C | 75% | 1005.6 hPa | 0 mm | - | 43 W/m² | - |
| 1777891148 | 3.33° C | 75% | 1005.8 hPa | 0 mm | - | 43 W/m² | - |
| 1777890843 | 2.78° C | 76% | 1006 hPa | 0 mm | - | 40 W/m² | - |
| 1777890539 | 2.78° C | 76% | 1006 hPa | 0 mm | - | 33 W/m² | - |
| 1777890235 | 2.78° C | 77% | 1006 hPa | 0 mm | - | 32 W/m² | - |
| 1777889931 | 2.78° C | 77% | 1005.7 hPa | 0 mm | - | 29 W/m² | - |
| 1777889630 | 2.22° C | 78% | 1005.6 hPa | 0 mm | - | 26 W/m² | - |
| 1777889326 | 2.22° C | 77% | 1005.8 hPa | 0 mm | - | 24 W/m² | - |
| 1777889023 | 2.22° C | 77% | 1005.6 hPa | 0 mm | - | 22 W/m² | - |
| 1777888721 | 2.22° C | 78% | 1005.4 hPa | 0 mm | - | 19 W/m² | - |
| 1777888416 | 1.67° C | 78% | 1005.3 hPa | 0 mm | - | 16 W/m² | - |
| 1777888113 | 1.67° C | 78% | 1005.4 hPa | 0 mm | - | 13 W/m² | - |
| 1777887811 | 1.67° C | 78% | 1005.3 hPa | 0 mm | - | 11 W/m² | - |
| 1777887507 | 1.11° C | 80% | 1005.1 hPa | 0 mm | - | 8 W/m² | - |
* Rain latest hour (hover to see other rain measurements)
** Current wind speed in m/s (hover to see current wind gust speed)